Regional Weather Roundup
Issued by NWS

Home | Current Version | Previous Version | Text Only | Print | Product List | Glossary On
Versions: 1 2 3 4 5 6 7 8 9 10 11 12 13 14 15 16 17 18 19 20 21 22 23 24 25 26 27 28 29 30 31 32 33 34 35 36 37 38 39 40 41 42 43 44 45 46 47 48 49 50
000
ASUS43 KTOP 301759
RWRKS

WEATHER ROUNDUP FOR KANSAS
NATIONAL WEATHER SERVICE GOODLAND KS
100 PM CDT TUE JUN 30 2015

NOTE:  "FAIR" INDICATES FEW OR NO CLOUDS BELOW 12,000 FEET WITH NO
SIGNIFICANT WEATHER AND/OR OBSTRUCTIONS TO VISIBILITY.

KSZ001>006-013>018-027>032-041>047-301900-
NORTHWEST KANSAS

CITY           SKY/WX    TMP DP  RH WIND       PRES   REMARKS
GOODLAND       MOSUNNY   92  46  20 SW8       30.03F
6HR MIN TEMP:  64; 6HR MAX TEMP:  92;

HAYS           MOSUNNY   99  54  22 W13G21    29.94F HX  96
HILL CITY      MOSUNNY   99  49  18 W13G20    29.94F HX  96
6HR MIN TEMP:  65; 6HR MAX TEMP:  99;

RUSSELL        MOSUNNY   97  53  22 S8        29.92F
6HR MIN TEMP:  65; 6HR MAX TEMP:  98;

$$

KSZ061>065-074>080-084>089-301900-
SOUTHWEST KANSAS

CITY           SKY/WX    TMP DP  RH WIND       PRES   REMARKS
DODGE CITY     MOSUNNY   93  52  24 SW14G21   30.02F
6HR MIN TEMP:  71; 6HR MAX TEMP:  93;

ELKHART          N/A     92  52  25 S9          N/A
GARDEN CITY    MOSUNNY   92  55  28 SW12      30.02F
6HR MIN TEMP:  63; 6HR MAX TEMP:  92;

GREAT BEND     SUNNY     95  57  28 SW10G18   29.96F
LIBERAL        SUNNY     91  57  31 S12G21    30.08F
$$

KSZ066>073-081>083-090>101-301900-
SOUTHEAST KANSAS

CITY           SKY/WX    TMP DP  RH WIND       PRES   REMARKS
CHANUTE        MOSUNNY   91  65  41 VRB5      29.97S
6HR MIN TEMP:  65; 6HR MAX TEMP:  91;

COFFEYVILLE    MOSUNNY   90  69  50 SW6       29.96F
6HR MIN TEMP:  65; 6HR MAX TEMP:  90;

HUTCHINSON     SUNNY     98  57  25 W10       29.95F HX  97
6HR MIN TEMP:  64; 6HR MAX TEMP:  98;

MEDICINE LODGE   N/A     97  57  26 SW13G18   29.97F HX  96
NEWTON         SUNNY     93  57  29 W12       29.99F
PARSONS        MOSUNNY   90  70  51 CALM      29.98S HX  95
6HR MIN TEMP:  64; 6HR MAX TEMP:  90;

WICHITA INTL   MOSUNNY   96  59  29 SW10G18   29.95F HX  95
6HR MIN TEMP:  66; 6HR MAX TEMP:  96;

WICHITA JABRA  SUNNY     95  59  30 SW7       29.96F
6HR MIN TEMP:  73; 6HR MAX TEMP:  95;

WINFIELD       SUNNY     94  61  33 W8        29.98F
6HR MIN TEMP:  66; 6HR MAX TEMP:  95;

$$

KSZ007>012-019>026-033>040-048>060-102>105-301900-
NORTHEAST KANSAS

CITY           SKY/WX    TMP DP  RH WIND       PRES   REMARKS
CONCORDIA      SUNNY     93  60  33 SW12      29.92F
6HR MIN TEMP:  64; 6HR MAX TEMP:  93;

EMPORIA        MOSUNNY   91  61  36 W6        29.95F
6HR MIN TEMP:  66; 6HR MAX TEMP:  92;

LAWRENCE       MOSUNNY   89  66  46 NW6       29.94F
6HR MIN TEMP:  65; 6HR MAX TEMP:  89;

MANHATTAN      MOSUNNY   94  57  28 SW8       29.92F
6HR MIN TEMP:  63; 6HR MAX TEMP:  95;

OLATHE IND     MOSUNNY   86  66  51 NW7       29.96S
6HR MIN TEMP:  69; 6HR MAX TEMP:  87;

OLATHE EXE     MOSUNNY   85  63  47 NW7       29.95S
6HR MIN TEMP:  68; 6HR MAX TEMP:  87;

SALINA         MOSUNNY   97  58  27 SW3       29.93F HX  96
6HR MIN TEMP:  65; 6HR MAX TEMP:  97;

TOPEKA BILLARD PTSUNNY   89  64  43 W5        29.94F
6HR MIN TEMP:  67; 6HR MAX TEMP:  89;

TOPEKA FORBES  PTSUNNY   92  58  31 W8        29.95F
6HR MIN TEMP:  66; 6HR MAX TEMP:  93;

$$


USA.gov is the U.S. government's official web portal to all federal, state and local government web resources and services.